This demonstration page uses our WeatherBlox Daily Observations layout. Learn more.

Left ArrowRight Arrow

39.29038, -76.61219

Hourly Observations for May 1, 2021

Temp ( °F °C ) Dew Point ( °F °C ) Humidity (%) Winds ( mph kmh ) Pressure ( in mb ) Visibility ( mi km ) Precip ( " mm )
12:54 am 00:54 Mostly Clear 49 9.4 18 -7.8 29 29 WNW 18 30 29.90 1012 10 16 N/A
1:54 am 01:54 Mostly Clear 49 9.4 19 -7.2 31 31 NW 16 26 29.91 1013 10 16 N/A
2:54 am 02:54 Clear 48 8.9 19 -7.2 32 32 WNW 15 24 29.92 1013 10 16 N/A
3:54 am 03:54 Clear 46 7.8 21 -6.1 37 37 WNW 12 19 29.93 1014 10 16 N/A
4:54 am 04:54 Mostly Clear 46 7.8 21 -6.1 37 37 WNW 13 20 29.95 1014 10 16 N/A
5:54 am 05:54 Mostly Clear 45 7.2 21 -6.1 39 39 WNW 10 17 29.96 1015 10 16 N/A
6:54 am 06:54 Sunny 46 7.8 23 -5 40 40 WNW 8 13 29.98 1015 10 16 N/A
7:54 am 07:54 Sunny 50 10 23 -5 35 35 NW 12 19 30.02 1017 10 16 N/A
8:54 am 08:54 Sunny 53 11.7 22 -5.6 30 30 WNW 16 26 30.03 1017 10 16 N/A
9:54 am 09:54 Sunny 56 13.3 23 -5 28 28 NW 13 20 30.04 1017 10 16 N/A
10:54 am 10:54 Sunny 58 14.4 24 -4.4 27 27 WNW 13 20 30.04 1017 10 16 N/A
11:54 am 11:54 Mostly Sunny 63 17.2 22 -5.6 21 21 NW 14 22 30.03 1017 10 16 N/A
12:54 pm 12:54 Mostly Sunny 64 17.8 22 -5.6 20 20 WNW 15 24 30.01 1016 10 16 N/A
1:54 pm 13:54 Mostly Sunny 66 18.9 25 -3.9 21 21 WNW 10 17 29.99 1016 10 16 N/A
2:54 pm 14:54 Mostly Sunny 67 19.4 24 -4.4 20 20 NW 14 22 29.99 1016 10 16 N/A
3:54 pm 15:54 Partly Cloudy 67 19.4 26 -3.3 21 21 WNW 10 17 29.97 1015 10 16 N/A
4:54 pm 16:54 Partly Cloudy 68 20 26 -3.3 21 21 WNW 12 19 29.95 1014 10 16 N/A
5:54 pm 17:54 Partly Cloudy 68 20 24 -4.4 19 19 VRB 5 7 29.93 1014 10 16 N/A
6:54 pm 18:54 Mostly Sunny 66 18.9 26 -3.3 22 22 W 10 17 29.93 1013 10 16 N/A
7:54 pm 19:54 Mostly Sunny 64 17.8 26 -3.3 24 24 S 3 6 29.91 1013 10 16 N/A
8:54 pm 20:54 Mostly Clear 61 16.1 28 -2.2 29 29 S 6 9 29.90 1013 10 16 N/A
9:54 pm 21:54 Mostly Clear 55 12.8 32 undefined 42 42 SW 3 6 29.92 1013 10 16 N/A
10:54 pm 22:54 Clear 54 12.2 31 -0.6 42 42 N N/A 29.92 1013 10 16 N/A
11:54 pm 23:54 Mostly Clear 56 13.3 30 -1.1 37 37 S 6 9 29.88 1012 10 16 N/A

Powered by AerisWeather